weather.gov     
National Weather Service

Terminal Aerodrome Forecast
NWS Homepage
This page is being discontinued on March 12, 2014.
The same data is available at this site. Please update your bookmarks.
Thank you, and we apologize for the inconvenience.
Please send an email to SR-SRH.Webmaster@noaa.gov with any concerns.


Current Version
Previous Version:    01  02  03  04  05  06  07  08  09  10  11  12  13  14  15  16  17  18  19  20  21  22  23  24  25  26  27  28  29  
[Printable]
079
FTUS43 KARX 302335
TAFRST
TAF
KRST 302335Z 3100/3124 33005KT P6SM OVC050
     FM310030 34018G30KT P6SM OVC030
      TEMPO 3101/3103 BKN022
     FM310500 34016G28KT P6SM FEW025
     FM311400 35014G24KT P6SM SKC=




079
FTUS43 KARX 302335
TAFRST
TAF
KRST 302335Z 3100/3124 33005KT P6SM OVC050
     FM310030 34018G30KT P6SM OVC030
      TEMPO 3101/3103 BKN022
     FM310500 34016G28KT P6SM FEW025
     FM311400 35014G24KT P6SM SKC=


U.S. Dept. of Commerce
NOAA National Weather Service
1325 East West Highway
Silver Spring, MD 20910
E-mail: w-nws.webmaster@noaa.gov
Page last modified: May 16, 2007
NATIONAL WEATHER SERVICE: for Safety, for Work, for Fun - FOR LIFE